Voltar ao catálogo

STARLINK-35656

AtivoComunicaçõesVLEO
NORAD 66391·PAYLOAD·🇺🇸 United States

Lançado Nov 8, 2025 de Cape Canaveral Space Force Station

Loading…

Próximas Passagens (próximas 24 horas)

TLE

AtualizadoSource: CelesTrak SupGP

Época: Sep 15, 2026, 03:29 UTC

1 66391C 25257M   26258.14562500 -.00019767  00000+0 -58423-3 0  2586
2 66391  53.1604  58.5509 0001211  87.5817  83.0337 15.34388767    16

Acompanhe STARLINK-35656 em tempo real com AllMySat

Download on the App Store